TimeEST,TemperatureF,Dew PointF,Humidity,Sea Level PressureIn,VisibilityMPH,Wind Direction,Wind SpeedMPH,Gust SpeedMPH,PrecipitationIn,Events,Conditions,WindDirDegrees,DateUTC
12:51 AM,27.0,18.0,69,30.62,10.0,NW,6.9,-,N/A,,Clear,320,2012-11-19 05:51:00
1:51 AM,25.0,18.0,75,30.61,10.0,NW,5.8,-,N/A,,Clear,320,2012-11-19 06:51:00
2:51 AM,23.0,18.0,81,30.60,10.0,NW,8.1,-,N/A,,Clear,320,2012-11-19 07:51:00
3:51 AM,25.0,18.0,75,30.59,10.0,NW,9.2,-,N/A,,Partly Cloudy,320,2012-11-19 08:51:00
4:39 AM,26.6,17.6,69,30.57,10.0,NW,8.1,-,N/A,,Mostly Cloudy,320,2012-11-19 09:39:00
5:01 AM,24.8,17.6,74,30.56,10.0,NW,8.1,-,N/A,,Scattered Clouds,320,2012-11-19 10:01:00
5:51 AM,24.1,17.1,75,30.56,10.0,North,4.6,-,N/A,,Clear,350,2012-11-19 10:51:00
6:51 AM,25.0,17.1,72,30.56,10.0,NNW,5.8,-,N/A,,Clear,340,2012-11-19 11:51:00
7:51 AM,28.9,19.9,69,30.55,10.0,North,4.6,-,N/A,,Partly Cloudy,350,2012-11-19 12:51:00
8:51 AM,35.1,21.9,59,30.53,10.0,NNW,5.8,-,N/A,,Clear,340,2012-11-19 13:51:00
9:51 AM,41.0,24.1,51,30.52,10.0,Calm,Calm,-,N/A,,Clear,0,2012-11-19 14:51:00
10:51 AM,43.0,30.0,60,30.49,10.0,Calm,Calm,-,N/A,,Clear,0,2012-11-19 15:51:00
11:51 AM,46.0,30.0,54,30.46,10.0,Calm,Calm,-,N/A,,Clear,0,2012-11-19 16:51:00
12:51 PM,46.9,30.9,54,30.43,10.0,ENE,4.6,-,N/A,,Clear,70,2012-11-19 17:51:00
1:51 PM,48.0,30.0,50,30.40,10.0,ENE,3.5,-,N/A,,Clear,60,2012-11-19 18:51:00
2:51 PM,46.9,28.9,50,30.40,10.0,Calm,Calm,-,N/A,,Clear,0,2012-11-19 19:51:00
3:51 PM,45.0,27.0,49,30.39,10.0,Calm,Calm,-,N/A,,Clear,0,2012-11-19 20:51:00
4:51 PM,41.0,33.1,73,30.37,10.0,SSE,3.5,-,N/A,,Clear,160,2012-11-19 21:51:00
5:51 PM,39.0,32.0,76,30.37,10.0,Calm,Calm,-,N/A,,Clear,0,2012-11-19 22:51:00
6:51 PM,35.1,30.9,85,30.36,10.0,Calm,Calm,-,N/A,,Clear,0,2012-11-19 23:51:00
7:51 PM,30.0,28.0,92,30.35,10.0,NW,5.8,-,N/A,,Clear,320,2012-11-20 00:51:00
9:51 PM,28.0,25.0,88,30.30,8.0,NNW,5.8,-,N/A,,Clear,330,2012-11-20 02:51:00
10:51 PM,28.0,26.1,92,30.28,7.0,NNW,5.8,-,N/A,,Clear,330,2012-11-20 03:51:00